Theta_e
290 290 288 288 288 288 287 287 288 288 288 289 290 291 292 292 293 294 293 294 294 295 296 296 296 297 297 299 302 304 306 309 307 311 315 317 317 317 318 315 314 316 316
288 287 286 286 286 286 285 285 286 286 287 287 288 288 288 288 290 289 289 289 290 290 291 292 292 293 294 296 296 294 295 297 297 296 302 307 313 316 317 317 316 313 314
285 285 284 284 284 283 283 284 284 284 284 285 285 285 286 287 286 286 287 287 288 288 289 289 290 291 291 291 291 292 293 294 293 292 293 299 303 308 311 314 314 315 313
283 282 281 281 281 281 282 282 282 282 282 283 283 283 284 284 284 284 284 285 286 287 289 289 289 289 288 288 289 289 289 289 290 289 290 291 294 298 299 298 303 308 307
281 280 279 280 280 280 280 280 281 281 281 281 281 282 282 282 283 283 284 284 285 285 286 286 287 285 286 287 287 286 287 286 286 286 286 288 289 290 292 296 297 301 304
280 279 279 279 279 279 279 279 279 279 280 280 280 280 280 281 283 284 283 283 282 282 282 283 283 284 284 284 285 285 285 284 284 285 286 285 286 288 290 291 291 291 290
278 277 277 277 277 277 277 278 277 278 279 279 279 279 279 280 282 282 282 281 281 281 281 281 281 282 282 282 282 283 283 284 285 284 283 285 286 288 288 287 286 286 286
276 276 276 276 275 276 276 276 276 277 277 277 278 278 279 279 280 281 281 280 280 279 280 280 279 279 280 280 280 280 281 282 284 284 284 285 286 288 287 286 286 286 287
275 275 275 275 274 275 274 274 276 276 276 276 277 277 276 277 279 280 279 278 278 278 278 278 278 278 279 280 278 277 277 279 282 283 284 287 289 289 289 287 285 284 283
274 274 274 273 273 274 274 274 275 276 275 276 276 276 276 275 277 279 279 277 276 276 276 277 278 277 278 279 277 275 273 275 276 276 279 281 285 287 289 288 287 284 284
272 272 272 272 272 273 273 273 274 274 274 275 275 275 275 275 275 278 278 276 275 274 274 274 275 276 277 278 278 274 275 276 274 274 274 276 278 279 280 283 285 287 285
270 270 270 270 271 272 271 272 273 273 273 274 273 274 274 274 275 276 276 276 276 272 272 273 273 275 275 275 274 276 275 273 271 270 270 271 271 272 275 277 278 282 288
268 267 268 269 270 270 270 270 272 272 271 271 271 271 271 272 272 275 274 275 274 272 272 273 272 273 273 272 272 273 270 269 268 267 267 268 270 272 273 274 276 277 280
266 267 268 268 268 269 270 270 270 269 269 269 269 268 269 270 270 272 272 272 272 270 270 268 269 269 270 269 267 269 268 267 266 266 266 267 269 269 270 271 271 272 273
266 266 267 268 267 268 268 268 268 269 269 268 267 268 267 266 269 272 271 270 270 269 266 264 264 264 263 263 263 264 265 264 263 264 263 264 265 267 267 269 269 270 271
266 266 265 266 266 266 266 267 268 267 268 268 269 268 268 269 271 271 271 271 270 269 261 260 260 261 260 260 260 260 261 261 261 261 262 262 262 264 264 265 268 268 268
264 264 264 264 264 264 264 264 263 265 267 266 267 267 267 268 269 270 269 269 266 265 258 258 258 258 258 258 259 259 258 260 260 260 259 260 261 261 262 262 265 266 266
261 260 263 262 262 262 262 262 261 261 260 261 264 265 265 266 268 268 267 263 258 259 257 256 256 256 257 256 257 257 257 258 258 258 258 258 259 259 260 260 263 264 265
261 261 261 261 261 259 260 260 260 260 260 259 260 261 261 263 266 265 263 257 256 256 256 256 256 256 255 255 255 256 256 256 256 256 256 257 257 258 258 259 262 263 264
258 258 258 259 259 259 259 258 259 259 258 258 258 258 258 259 258 256 257 256 255 255 255 255 255 255 254 254 254 254 254 254 255 255 255 256 257 257 257 258 262 262 262
259 258 256 257 257 257 257 257 257 257 256 256 256 258 262 259 255 255 255 255 255 255 254 254 254 254 254 254 253 253 253 253 254 254 255 255 255 255 257 258 262 262 262
258 257 257 257 257 256 257 256 256 255 255 255 256 256 260 255 255 255 255 255 255 255 254 254 253 253 253 253 252 252 252 252 253 253 254 254 254 255 257 260 262 262 262
257 256 256 256 256 254 254 256 255 255 255 255 255 254 254 254 254 254 254 254 254 254 254 253 252 252 252 252 253 252 251 252 253 253 252 253 253 254 257 261 262 261 261
256 256 256 256 255 255 255 255 255 253 253 254 254 254 254 254 253 253 253 253 253 253 253 252 252 251 251 251 252 252 253 253 253 253 253 253 254 257 260 261 262 262 262
255 255 255 255 254 254 254 254 254 254 254 254 253 254 254 254 253 253 253 253 252 252 251 251 251 251 251 250 251 251 251 253 252 254 255 257 259 260 261 262 261 262 262
255 254 254 254 254 253 253 253 253 253 253 253 253 253 253 253 252 252 252 252 251 251 250 251 251 250 250 251 251 253 254 257 257 259 261 260 260 262 262 261 261 261 262
Wind_Speed
9 10 10 10 10 10 10 11 11 11 12 12 12 12 13 13 13 12 13 12 12 11 11 12 13 14 10 10 11 11 12 13 16 13 12 11 13 13 11 10 11 14 13
8 9 10 10 10 10 11 11 11 11 11 12 11 12 12 13 13 14 14 14 14 13 13 13 14 11 13 12 11 13 11 12 13 21 16 15 16 13 10 13 11 10 13
7 8 9 9 10 10 11 11 11 11 11 11 11 12 12 12 15 14 14 13 13 12 13 13 14 14 13 13 13 12 12 12 13 13 16 13 15 14 15 10 9 14 9
7 8 9 9 9 9 10 10 10 10 10 10 11 11 11 12 14 14 14 14 13 12 12 12 13 14 15 15 13 15 14 14 15 14 15 14 13 13 8 9 12 11 12
6 7 7 8 7 8 9 9 9 9 9 9 10 10 10 11 11 14 14 12 12 12 12 12 12 12 14 19 12 16 17 14 13 15 16 15 13 12 13 13 14 13 15
5 6 6 7 7 8 8 8 8 8 9 8 9 10 9 8 18 20 18 11 13 13 12 13 13 12 18 22 23 26 22 18 18 15 15 16 18 16 14 14 15 13 14
5 6 7 6 7 7 7 7 7 8 8 8 9 9 8 9 19 21 21 11 11 12 13 13 13 12 16 17 24 28 23 24 23 20 21 18 21 17 17 16 16 18 19
5 7 5 6 6 6 6 6 7 7 7 7 8 9 9 8 19 20 21 12 11 12 13 14 14 16 17 22 21 19 17 16 15 13 17 20 20 21 20 20 21 21 19
6 6 5 6 5 6 6 6 6 6 5 6 7 8 9 8 18 20 18 11 11 13 13 14 14 14 24 29 19 19 18 15 19 30 32 35 35 33 28 18 14 15 19
4 5 5 6 4 6 5 5 5 5 5 5 6 6 8 8 15 18 19 8 11 11 11 13 18 20 29 29 18 16 17 19 20 20 17 21 24 19 25 18 14 14 15
4 4 5 5 4 4 4 4 4 4 4 4 5 4 6 7 11 18 22 11 10 10 10 10 10 27 29 27 25 13 19 23 20 15 14 13 14 15 14 16 17 14 13
3 4 4 4 3 3 2 3 2 3 2 3 5 5 5 7 12 15 20 20 19 11 12 10 12 26 25 25 18 28 28 21 12 13 13 13 14 14 15 16 20 21 18
3 3 3 3 2 1 1 2 1 3 4 5 5 6 6 6 7 17 20 20 18 12 10 18 24 23 22 16 23 25 19 11 12 12 13 13 14 15 18 17 17 21 22
4 3 4 3 1 2 1 2 2 4 5 5 5 6 6 6 7 8 9 9 13 12 15 10 15 16 17 16 13 14 11 11 12 12 13 13 13 14 14 14 16 17 16
5 4 3 3 3 2 3 3 3 4 5 4 4 5 5 5 7 14 14 10 10 12 12 7 7 8 10 10 9 11 11 11 12 12 14 14 15 14 15 16 16 17 16
5 4 3 3 2 2 2 2 2 2 5 4 7 6 5 10 16 17 18 20 20 19 6 7 8 9 10 11 11 11 11 13 12 14 13 14 15 16 16 16 15 15 16
4 3 3 2 2 3 2 2 2 4 5 2 6 9 10 12 15 16 18 19 15 13 5 6 7 8 9 9 10 10 11 11 14 12 13 14 14 15 18 16 15 15 17
4 3 3 3 2 2 1 2 2 3 4 4 6 9 10 15 15 16 17 12 6 7 5 7 7 8 8 9 9 10 10 11 11 12 12 13 13 14 15 15 15 17 17
3 3 2 2 2 1 1 1 2 3 4 4 5 6 7 15 15 15 14 4 6 6 6 7 7 8 8 9 9 9 10 10 11 11 11 12 13 13 15 15 16 22 23
3 4 2 1 1 0 1 2 3 3 4 4 4 4 5 7 6 6 5 6 6 6 7 7 8 8 9 9 9 9 10 10 11 10 11 12 13 13 14 16 16 17 17
3 3 2 2 2 1 2 2 3 3 4 4 5 5 13 6 5 5 6 5 6 6 7 8 8 8 8 9 9 9 10 10 10 11 11 12 13 13 14 15 15 16 16
2 2 3 2 2 3 2 3 3 4 4 5 5 6 13 4 5 5 6 6 7 7 7 8 8 8 9 9 9 10 10 12 11 11 12 12 13 13 14 15 16 15 16
2 3 3 3 3 2 4 4 4 4 5 5 5 6 5 5 6 6 7 7 7 8 7 7 8 9 8 9 9 10 11 12 11 11 12 13 13 13 14 15 15 16 15
3 3 3 3 3 3 4 4 4 5 5 5 6 5 5 6 7 8 8 8 8 8 8 8 8 11 11 10 10 10 11 12 10 12 16 14 15 17 15 16 15 18 16
4 4 4 4 4 4 4 4 5 5 5 5 5 5 6 7 8 8 8 8 8 8 10 9 9 12 14 16 16 19 19 22 17 18 14 17 18 21 16 13 16 16 18
5 4 4 4 4 4 4 5 5 5 5 5 5 6 7 7 8 8 8 8 8 9 11 10 12 17 19 16 18 19 19 21 20 23 16 14 15 14 13 15 20 15 17
Wind_Direction
52 51 49 44 42 42 44 35 26 21 18 17 13 11 12 12 11 9 5 4 357 355 353 350 346 351 345 337 335 335 327 327 305 302 288 279 273 268 267 245 255 250 252
47 56 49 47 39 36 33 33 25 25 21 16 16 19 15 12 21 10 3 358 353 353 352 348 350 343 343 342 350 339 327 323 317 312 311 314 308 290 266 269 266 247 253
46 48 46 45 43 34 29 25 27 22 23 23 19 21 18 16 26 9 0 356 352 355 349 349 345 345 347 347 336 331 332 328 317 306 307 311 314 314 305 284 262 271 257
59 59 50 41 41 39 31 19 22 22 24 25 26 23 23 29 21 7 3 357 347 354 356 350 352 353 343 335 338 330 325 322 319 312 308 307 306 312 305 305 297 290 278
76 69 64 52 40 40 40 25 25 19 21 25 29 25 26 42 15 2 358 354 355 351 356 354 351 342 329 343 329 332 327 322 314 310 308 308 313 316 310 308 300 301 286
90 85 68 62 43 35 36 29 33 20 16 27 30 32 27 33 14 12 4 6 1 1 357 355 350 347 347 341 342 337 332 325 317 310 305 302 304 306 305 311 304 308 306
95 78 65 61 61 43 32 27 31 27 11 22 28 28 29 29 12 14 8 7 4 359 355 354 351 352 346 348 338 330 324 314 309 304 300 300 302 307 307 309 308 301 289
118 87 79 72 54 49 47 31 30 20 10 13 18 21 19 21 12 9 8 6 3 357 354 353 352 348 351 341 330 325 320 316 304 300 295 297 297 302 296 294 291 287 283
105 92 79 67 56 52 39 24 28 7 5 8 11 18 17 14 10 7 9 3 359 354 354 350 347 343 338 336 335 326 325 321 326 319 309 303 289 285 282 285 284 287 288
109 94 75 69 53 44 22 19 15 359 4 0 5 15 16 9 6 3 10 357 354 351 348 345 341 341 337 341 337 334 328 331 332 322 317 312 312 298 284 268 272 275 284
102 109 81 63 53 37 14 18 5 1 351 349 0 3 20 11 2 2 7 359 351 348 338 334 336 338 336 337 339 336 335 334 326 323 319 321 326 325 326 328 315 283 271
162 109 89 72 51 41 12 18 336 343 326 1 8 3 8 6 5 359 360 359 352 346 339 332 333 331 333 336 341 338 341 337 326 327 328 331 326 323 321 316 309 304 285
123 102 100 83 71 34 65 31 2 13 15 9 3 357 352 356 359 359 354 353 349 346 331 330 329 331 335 337 341 341 342 337 334 329 329 324 322 318 315 313 314 308 307
142 144 133 128 97 76 69 51 38 32 14 3 0 351 340 349 352 346 347 344 344 343 337 329 327 333 340 341 341 341 339 337 331 323 322 318 319 323 323 323 320 320 310
156 152 126 121 88 75 63 48 36 52 2 356 359 341 341 338 330 343 343 341 342 333 344 324 330 342 343 342 341 336 331 333 332 330 324 326 324 325 328 327 322 318 314
148 141 105 116 99 75 44 36 111 6 357 9 3 350 338 334 330 343 343 339 340 340 348 339 341 341 336 335 332 333 330 332 332 325 325 323 325 325 324 325 318 318 315
120 130 125 96 78 64 41 12 333 331 332 293 347 346 348 344 334 343 342 343 343 355 346 339 330 328 326 325 322 326 324 326 324 322 322 321 321 320 322 322 317 319 319
124 92 109 91 75 55 26 348 328 322 318 307 327 333 345 345 338 345 345 355 344 355 340 328 318 317 316 315 316 317 317 318 319 320 319 318 319 317 317 320 315 322 319
155 124 107 106 93 33 319 310 298 295 300 304 317 329 358 336 335 347 354 353 333 325 324 313 310 307 308 307 308 309 311 311 315 314 316 316 318 316 313 315 309 321 320
117 115 87 108 127 262 282 282 288 298 301 300 305 315 325 308 342 335 336 328 318 311 309 304 302 302 302 303 304 306 306 310 313 312 313 312 316 313 309 313 309 322 320
146 140 95 194 203 222 256 268 282 284 287 295 297 302 306 341 311 304 304 302 297 294 293 292 296 296 298 299 301 302 306 305 306 307 309 312 313 310 306 306 310 317 317
165 170 190 210 212 233 246 271 268 271 272 278 289 297 315 307 293 293 294 291 291 288 286 288 289 287 291 295 298 299 300 300 301 303 307 307 305 304 303 303 312 318 318
188 205 211 217 231 238 240 237 252 263 274 282 288 288 298 295 293 291 289 290 289 287 291 289 286 285 283 284 287 288 289 289 293 298 299 301 299 298 298 307 316 316 318
205 219 236 242 237 252 258 254 263 260 259 269 276 283 287 286 285 284 284 283 285 287 287 285 282 282 286 282 282 280 279 283 286 289 291 288 290 295 305 303 311 313 313
212 222 229 246 249 252 263 260 262 263 263 267 275 279 282 281 280 280 281 283 284 285 285 286 284 285 285 283 278 280 279 284 285 282 283 282 288 298 295 302 311 309 311
215 219 231 239 244 245 250 258 262 267 270 276 275 275 275 276 277 279 282 281 280 279 284 284 282 281 283 284 283 282 285 289 292 292 296 297 296 300 311 310 311 313 310